DateTimeUTC,F1_A11,F1_S11,BsB_S11,BsG_S11,BsR_S11,BbsB_S11,BbsG_S11,BbsR_S11,BaB_A11,BaG_A11,BaR_A11,Tu_S11,T_S11,Uu_S11,U_S11,P_S11,T1_A11
2021-11-05T04:00:00Z,00000200,21000000,,,,,,,0000.33,0000.17,-000.23,18.7,25.8,,00.0,0649.1,31.1
2021-11-05T04:01:00Z,00000200,21000000,,,,,,,-000.39,-000.08,0000.25,18.7,25.7,,00.0,0649.1,31.1
2021-11-05T04:02:00Z,00000200,21000000,,,,,,,0000.06,-000.38,-000.13,18.7,25.7,,00.0,0649.1,31.1
2021-11-05T04:03:00Z,00000200,61000000,,,,,,,0000.09,0000.15,-000.07,18.7,25.7,,00.0,0649.1,31.1
2021-11-05T04:04:00Z,00000200,41000000,-000.51,0000.35,-000.23,0000.41,0000.12,-000.16,-000.05,0000.05,0000.22,18.7,25.5,,00.0,0649.9,31.1
2021-11-05T04:05:00Z,00000200,01000000,-000.50,0000.20,-000.03,0000.37,0000.24,-000.27,0000.17,0000.27,0000.16,18.8,25.5,,00.0,0650.0,31.1
2021-11-05T04:06:00Z,00000200,01000000,0000.52,0000.20,-000.28,-000.20,-000.09,-000.32,0000.22,0000.25,-000.01,18.9,25.5,,00.0,0650.0,31.1
2021-11-05T04:07:00Z,00000200,01000000,0000.12,0000.11,-000.26,0000.36,0000.15,-000.02,-000.07,0000.07,0000.24,19.0,25.5,,00.0,0650.0,31.1
2021-11-05T04:08:00Z,00000200,01000000,-000.27,0000.17,-000.23,0000.28,0000.46,-000.17,0000.38,0000.13,-000.37,19.1,25.5,,00.0,0650.0,31.1
2021-11-05T04:09:00Z,00000200,01000000,0000.50,-000.07,0000.08,0000.44,0000.25,0000.04,0000.02,-000.10,0000.39,19.2,25.6,,00.0,0650.0,31.2
2021-11-05T04:10:00Z,00000200,01000000,-000.21,0000.05,-000.22,-000.38,0000.25,-000.22,-000.12,-000.09,0000.12,19.2,25.6,,00.0,0650.0,31.2
2021-11-05T04:11:00Z,00000200,01000000,-000.33,0000.16,-000.16,-000.88,-000.13,-000.03,0000.45,0000.13,-000.02,19.3,25.7,,00.0,0650.0,31.2
2021-11-05T04:12:00Z,00000200,01000000,-000.50,-000.14,-000.50,-000.28,0000.01,0000.04,-000.42,0000.13,0000.21,19.3,25.7,,00.0,0650.0,31.2
2021-11-05T04:13:00Z,00000200,01000000,0000.31,0000.12,-000.16,0000.39,0000.33,-000.00,-000.14,0000.19,-000.31,19.3,25.7,,00.0,0650.0,31.2
2021-11-05T04:14:00Z,00000200,01000000,0000.38,-000.27,-000.17,0000.05,0000.12,-000.01,0000.08,-000.43,0000.06,19.2,25.6,,00.0,0650.0,31.1
2021-11-05T04:15:00Z,00000200,01000000,0000.53,0000.13,-000.34,0000.12,-000.05,-000.20,0000.02,-000.02,-000.22,19.2,25.6,,00.0,0650.0,31.1
2021-11-05T04:16:00Z,00000200,01000000,-000.06,0000.04,0000.02,-000.09,0000.18,-000.08,0000.21,-000.32,-000.11,19.1,25.6,,00.0,0650.0,31.1
2021-11-05T04:17:00Z,00000200,01000000,-000.18,0000.15,-000.37,0000.26,-000.12,0000.15,-000.26,-000.09,0000.33,19.0,25.5,,00.0,0650.0,31.1
2021-11-05T04:18:00Z,00000200,01000000,-000.40,0000.51,-000.04,0000.10,0000.09,-000.18,0000.17,0000.26,-000.23,19.0,25.5,,00.0,0650.1,31.1
2021-11-05T04:19:00Z,00000200,01000000,-000.03,0000.39,-000.08,0000.12,0000.50,-000.02,-000.04,0000.31,0000.09,19.0,25.5,,00.0,0650.1,31.1
2021-11-05T04:20:00Z,00000200,01000000,0000.06,0000.47,-000.46,-000.08,0000.10,-000.08,-000.26,-000.20,0000.27,19.1,25.5,,00.0,0650.1,31.1
2021-11-05T04:21:00Z,00000200,01000000,0000.70,0000.46,-000.05,0000.17,0000.27,0000.05,0000.34,-000.03,0000.07,19.1,25.6,,00.0,0650.1,31.1
2021-11-05T04:22:00Z,00000200,01000000,-000.21,-000.20,-000.45,0000.24,0000.03,-000.13,-000.14,0000.17,-000.07,19.2,25.6,,00.0,0650.1,31.1
2021-11-05T04:23:00Z,00000200,01000000,-000.73,-000.06,0000.04,0000.46,-000.02,0000.07,-000.03,0000.26,-000.13,19.3,25.6,,00.0,0650.1,31.2
2021-11-05T04:24:00Z,00000200,01000000,-000.11,-000.21,-000.48,-000.13,0000.29,-000.10,0000.32,-000.02,0000.21,19.3,25.7,,00.0,0650.1,31.2
2021-11-05T04:25:00Z,00000200,01000000,-000.21,0000.09,-000.32,-000.04,0000.15,0000.21,-000.31,0000.18,-000.30,19.4,25.7,,00.0,0650.1,31.1
2021-11-05T04:26:00Z,00000200,01000000,-000.30,0000.01,-000.22,0000.04,0000.29,-000.45,0000.02,-000.40,-000.09,19.3,25.7,,00.0,0650.1,31.1
2021-11-05T04:27:00Z,00000200,01000000,-000.74,0000.05,-000.03,-000.28,-000.17,-000.18,-000.01,-000.02,0000.25,19.2,25.7,,00.0,0650.1,31.1
2021-11-05T04:28:00Z,00000200,01000000,-000.36,0000.22,-000.16,0000.18,0000.11,-000.20,0000.18,-000.16,-000.55,19.2,25.6,,00.0,0650.1,31.1
2021-11-05T04:29:00Z,00000200,01000000,-000.07,0000.51,-000.31,0000.52,-000.10,-000.13,-000.49,0000.05,0000.03,19.1,25.6,,00.0,0650.1,31.1
2021-11-05T04:30:00Z,00000200,01000000,0000.03,0000.16,-000.19,-000.21,0000.28,0000.19,0000.24,-000.17,0000.05,19.0,25.5,,00.0,0650.1,31.1
2021-11-05T04:31:00Z,00000200,01000000,0000.40,-000.10,-000.39,-000.04,0000.01,-000.23,-000.01,0000.11,0000.08,18.9,25.5,,00.0,0650.1,31.1
2021-11-05T04:32:00Z,00000200,01000000,-000.67,-000.14,-000.31,-000.10,0000.03,-000.23,0000.30,-000.10,0000.08,18.9,25.5,,00.0,0650.0,31.1
2021-11-05T04:33:00Z,00000200,01000000,-000.62,0000.06,-000.12,0000.12,0000.30,-000.35,-000.21,0000.12,-000.01,18.9,25.4,,00.0,0650.1,31.1
2021-11-05T04:34:00Z,00000200,01000000,0000.43,-000.44,0000.05,-000.06,0000.02,0000.30,-000.14,-000.08,0000.16,18.9,25.4,,00.0,0650.1,31.1
2021-11-05T04:35:00Z,00000200,01000000,-000.31,-000.02,-000.21,0000.37,0000.09,0000.14,0000.26,0000.39,0000.07,18.9,25.4,,00.0,0650.1,31.1
2021-11-05T04:36:00Z,00000200,01000000,-000.03,-000.01,-000.05,-000.07,-000.30,-000.08,0000.01,0000.28,0000.09,19.0,25.5,,00.0,0650.1,31.1
2021-11-05T04:37:00Z,00000200,01000000,0000.31,-000.03,-000.07,0000.22,0000.22,-000.19,0000.20,-000.33,0000.06,19.1,25.5,,00.0,0650.1,31.1
2021-11-05T04:38:00Z,00000200,01000000,-000.40,0000.32,-000.00,0000.60,-000.04,0000.41,-000.02,0000.11,-000.21,19.2,25.6,,00.0,0650.1,31.1
2021-11-05T04:39:00Z,00000200,01000000,-000.40,0000.15,-000.01,0000.38,-000.02,0000.19,-000.20,0000.03,0000.36,19.2,25.6,,00.0,0650.1,31.2
2021-11-05T04:40:00Z,00000200,01000000,0000.48,0000.30,0000.04,-000.34,0000.10,0000.05,0000.04,-000.07,-000.23,19.3,25.6,,00.0,0650.1,31.2
2021-11-05T04:41:00Z,00000200,01000000,-000.53,0000.15,-000.08,0000.02,0000.05,-000.12,-000.19,0000.01,-000.23,19.3,25.7,,00.0,0650.2,31.2
2021-11-05T04:42:00Z,00000200,01000000,-000.08,0000.27,0000.03,-000.12,0000.32,-000.23,-000.18,-000.02,0000.17,19.3,25.7,,00.0,0650.2,31.2
2021-11-05T04:43:00Z,00000200,01000000,0000.52,-000.08,-000.15,-000.54,0000.13,0000.32,0000.13,-000.40,-000.24,19.2,25.6,,00.0,0650.2,31.1
2021-11-05T04:44:00Z,00000200,01000000,-000.36,0000.14,0000.26,-000.39,0000.27,-000.06,0000.43,0000.42,0000.39,19.1,25.6,,00.0,0650.2,31.1
2021-11-05T04:45:00Z,00000200,01000000,-000.01,0000.19,0000.13,0000.32,0000.07,0000.08,-000.47,-000.55,-000.31,19.0,25.5,,00.0,0650.2,31.1
2021-11-05T04:46:00Z,00000200,01000000,0000.35,0000.27,-000.11,0000.11,0000.07,0000.01,0000.49,0000.52,-000.01,19.0,25.5,,00.0,0650.2,31.1
2021-11-05T04:47:00Z,00000200,01000000,0000.81,-000.08,-000.27,0000.06,-000.08,-000.06,-000.53,-000.29,-000.17,18.9,25.5,,00.0,0650.2,31.1
2021-11-05T04:48:00Z,00000200,01000000,0000.08,-000.05,-000.07,0000.40,-000.12,0000.22,0000.67,0000.39,0000.54,18.9,25.4,,00.0,0650.2,31.1
2021-11-05T04:49:00Z,00000200,01000000,0000.79,0000.08,0000.07,0000.62,0000.20,0000.05,0000.18,0000.07,-000.11,18.9,25.4,,00.0,0650.2,31.1
2021-11-05T04:50:00Z,00000200,01000000,-000.17,0000.11,-000.08,-000.30,-000.11,0000.14,-000.10,0000.32,0000.28,19.0,25.5,,00.0,0650.2,31.1
2021-11-05T04:51:00Z,00000200,01000000,0000.21,-000.15,-000.25,0000.14,0000.28,-000.06,0000.28,0000.13,-000.12,19.1,25.5,,00.0,0650.2,31.1
2021-11-05T04:52:00Z,00000200,01000000,-000.05,0000.05,-000.16,0000.30,-000.08,-000.13,0000.12,0000.09,0000.28,19.1,25.5,,00.0,0650.3,31.1
2021-11-05T04:53:00Z,00000200,01000000,0000.48,0000.13,-000.41,-000.02,0000.15,-000.38,0000.06,-000.18,-000.06,19.2,25.6,,00.0,0650.3,31.2
2021-11-05T04:54:00Z,00000200,01000000,0000.38,0000.12,-000.32,0000.04,0000.15,-000.36,0000.09,0000.13,-000.04,19.3,25.6,,00.0,0650.3,31.2
2021-11-05T04:55:00Z,00000200,01000000,0000.87,0000.11,-000.44,0000.06,0000.16,-000.07,-000.10,-000.06,0000.12,19.4,25.7,,00.0,0650.4,31.2
2021-11-05T04:56:00Z,00000200,01000000,-000.17,0000.27,0000.22,0000.23,0000.05,0000.27,-000.36,-000.21,0000.23,19.4,25.7,,00.0,0650.3,31.2
2021-11-05T04:57:00Z,00000200,41000000,,,,,,,0000.00,0000.08,-000.18,19.4,25.7,,00.0,0650.4,31.2
2021-11-05T04:58:00Z,00000200,61000000,,,,,,,-000.11,-000.03,-000.33,19.0,25.7,,00.0,0649.4,31.1
2021-11-05T04:59:00Z,00000200,21000000,,,,,,,-000.36,-000.21,-000.29,19.0,25.8,,00.0,0649.4,31.1
